Weather in Ca Mau

Vietnam     9°10′29″N   105°08′58″E
temp.,
°C
wind,
m/s
gust,
m/s
humid.,
%
clouds,
%
prec.,
mm/h
press.,
hPa
HPBL,
m
11 may, tue
tue1101:00+28sse24765 0.0 1008321
04:00+28sse117773 0.0 100730
07:00+29se2371100 0.0 1008656
10:00+35ese4445100 0.0 10091833
13:00+37ese543782 0.0 10062312
16:00+34ssw224780 0.1 10051211
19:00+31sse336020 0.6 1006650
22:00+29sse3570100 0.0 1008587
12 may, wed
wed1201:00+28sse247486 0.0 1007355
04:00+27sse117870 0.0 100642
07:00+29sse127153 0.0 1008488
10:00+35ese224470 0.0 10081580
13:00+37ese4337100 0.0 10052578
16:00+30w356399 0.2 1005447
19:00+30sw23656 0.2 1006437
22:00+29sse23693 0.0 1008316
13 may, thu
thu1301:00+28s23745 0.0 1006167
04:00+27s12777 0.0 100639
07:00+29sse236937 0.0 1007422
10:00+35ese234646 0.0 10071735
13:00+36se4340100 0.0 10052114
16:00+31w226098 0.2 1004535
19:00+30s116352 0.2 1006234
22:00+29s236945 0.0 1007274
14 may, fri
fri1401:00+28s12746 0.0 1006115
04:00+27s11785 0.0 100526
07:00+29se127182 0.0 1007471
10:00+34e3445100 0.0 10071689
13:00+37se643989 0.0 10042302
16:00+33wsw125495 0.2 10041129
19:00+30se346594 0.5 1005547
22:00+29sse247221 0.3 1007481
15 may, sat
sat1501:00+28se127791 0.6 1006130
04:00+28sse11817 0.4 100545
07:00+29ese237372 0.7 1007652
10:00+34ese344877 0.1 10071979
13:00+34ese544678 0.3 10051783
16:00+33se3349100 0.2 10041217
19:00+30se346344 0.3 1005438
22:00+29sse24735 0.0 1006366